Location: New Plymouth
(39.0670°S, 174.0830°E)
Time: 02:46:21
(UTC+13:00)

Cosmos 2181 Rocket - Pass Details

Date: 24 January 2019
Orbit: 952 x 1015 km, 82.9° (Epoch: 18 February)

Event Time Altitude Azimuth Distance (km) Brightness Sun altitude
Rises 23:30:20 0° 183° (S) 3,674 8.0 -24.8°
Reaches altitude 10° 23:32:54 10° 178° (S) 2,727 7.1 -25.0°
Maximum altitude 23:39:02 57° 100° (E) 1,146 4.2 -25.6°
Enters shadow 23:39:46 53° 73° (ENE) 1,185 4.1 -25.7°
